VE3GSI Weather Reports


time (UTC)temp
C
wind
direction
speed
KPH
gust
KPH
rain 1hr
cm
rain 24hr
cm
rain mn
cm
humidity
%
barometer
mb
20260505212605 12 285 8.0 27.4 0.00 0.00 0.00 63 1004.9
20260505211605 13 268 9.7 27.4 0.00 0.00 0.00 58 1004.5
20260505205605 15 261 16.1 27.4 0.00 0.00 0.00 55 1004.1
20260505204606 15 276 11.3 22.5 0.00 0.00 0.00 57 1003.5
20260505202604 15 258 12.9 29.0 0.00 0.00 0.00 57 1003.2
20260505201605 15 263 11.3 32.2 0.00 0.00 0.00 60 1003.1
20260505200605 15 264 9.7 20.9 0.00 0.00 0.00 59 1002.7
20260505194605 15 271 11.3 19.3 0.00 0.00 0.00 62 1002.6
20260505193605 16 264 9.7 22.5 0.00 0.00 0.00 62 1002.5
20260505192605 16 258 14.5 24.1 0.00 0.00 0.00 62 1002.2
20260505191605 16 258 14.5 24.1 0.00 0.00 0.00 64 1002.2
20260505190605 16 247 11.3 27.4 0.00 0.00 0.00 65 1002.1
20260505185604 16 264 12.9 29.0 0.00 0.00 0.00 64 1002.3
20260505184605 16 293 11.3 25.7 0.00 0.00 0.00 66 1002.1
20260505183605 16 274 9.7 25.7 0.00 0.00 0.00 68 1002.1
20260505182605 16 261 9.7 19.3 0.00 0.00 0.00 70 1002.0
20260505180605 15 258 9.7 19.3 0.00 0.00 0.00 75 1001.6
20260505175605 15 243 9.7 25.7 0.00 0.00 0.00 75 1001.6
20260505172605 18 265 16.1 27.4 0.00 0.00 0.00 67 1001.2
20260505165605 20 232 19.3 38.6 0.00 0.00 0.00 64 1000.4
20260505164604 20 224 20.9 35.4 0.00 0.00 0.00 65 1000.5
20260505163604 19 228 12.9 29.0 0.00 0.00 0.00 68 1000.3
20260505162605 19 222 16.1 32.2 0.00 0.00 0.00 67 1000.6
20260505161604 20 215 17.7 38.6 0.00 0.00 0.00 64 1000.4
20260505160605 20 219 19.3 41.8 0.00 0.00 0.00 63 1000.4
20260505152605 20 227 19.3 46.7 0.00 0.00 0.00 64 999.1
20260505151605 20 217 9.7 25.7 0.00 0.00 0.00 65 999.3
20260505150605 19 212 14.5 33.8 0.00 0.00 0.00 67 999.2
20260505140604 17 234 19.3 33.8 0.00 0.00 0.00 73 999.1
20260505124606 15 219 8.0 19.3 0.00 0.00 0.00 80 998.7
20260505123604 15 210 6.4 19.3 0.00 0.00 0.00 81 998.8
20260505122605 15 216 8.0 20.9 0.00 0.00 0.00 81 998.8
20260505121605 15 215 11.3 20.9 0.00 0.00 0.00 81 998.9
20260505120604 15 213 11.3 27.4 0.00 0.00 0.00 82 998.7
20260505115605 14 212 8.0 19.3 0.00 0.00 0.00 83 998.5
20260505114605 13 199 8.0 16.1 0.00 0.00 0.00 83 998.5
20260505113605 13 232 8.0 16.1 0.00 0.00 0.00 84 998.6
20260505111605 13 187 8.0 19.3 0.00 0.00 0.00 84 998.6
20260505110605 13 200 8.0 20.9 0.00 0.00 0.00 85 998.4
20260505101604 12 238 8.0 14.5 0.00 0.03 0.00 87 998.3
20260505100605 12 206 4.8 8.0 0.00 0.03 0.00 85 998.3
20260505095604 12 188 3.2 11.3 0.00 0.03 0.00 83 998.1
20260505094605 12 204 4.8 8.0 0.00 0.03 0.00 82 998.1
20260505093605 13 208 4.8 12.9 0.00 0.03 0.00 82 998.0
20260505092604 13 224 3.2 9.7 0.00 0.03 0.00 80 998.0
20260505091604 13 200 6.4 16.1 0.00 0.03 0.00 79 998.1
20260505090604 14 222 9.7 16.1 0.00 0.03 0.00 79 998.1
20260505085604 14 222 6.4 19.3 0.00 0.03 0.00 79 998.1
20260505084604 14 228 9.7 32.2 0.00 0.03 0.00 79 998.3
20260505083605 14 181 9.7 14.5 0.00 0.03 0.00 78 998.2
20260505082605 14 199 8.0 14.5 0.00 0.03 0.00 77 998.4
20260505081604 14 227 9.7 22.5 0.00 0.03 0.00 77 998.4
20260505080604 14 200 14.5 20.9 0.00 0.03 0.00 76 998.4
20260505074604 14 218 11.3 24.1 0.00 0.03 0.00 75 998.5
20260505072604 14 215 9.7 25.7 0.00 0.03 0.00 76 998.7
20260505071604 13 209 9.7 19.3 0.00 0.03 0.00 76 998.7
20260505070605 13 216 9.7 19.3 0.00 0.03 0.00 76 998.7
20260505065605 12 210 11.3 20.9 0.00 0.03 0.00 78 998.7
20260505064604 11 212 8.0 12.9 0.00 0.03 0.00 78 998.6
20260505063604 11 200 4.8 11.3 0.00 0.03 0.00 76 998.7
20260505062605 11 206 3.2 9.7 0.00 0.03 0.00 75 998.6
20260505061604 11 196 3.2 8.0 0.00 0.03 0.00 73 998.5
20260505055605 11 207 1.6 8.0 0.00 0.03 0.00 71 998.6
20260505054604 12 197 1.6 8.0 0.00 0.03 0.00 71 998.8
20260505053604 11 212 1.6 8.0 0.00 0.03 0.00 72 998.8
20260505052604 11 212 4.8 8.0 0.00 0.03 0.00 72 998.9
20260505051605 11 181 3.2 8.0 0.00 0.03 0.00 73 999.0
20260505050604 11 189 3.2 11.3 0.00 0.03 0.00 73 999.3
20260505041604 11 203 1.6 8.0 0.00 0.05 0.00 69 999.4
20260505040604 11 189 3.2 4.8 0.00 0.05 0.00 68 999.4
20260505035604 11 187 1.6 11.3 0.00 0.05 0.05 68 999.6
20260505034604 12 197 3.2 8.0 0.00 0.05 0.05 66 999.6
20260505033604 12 229 1.6 4.8 0.00 0.05 0.05 65 999.6
20260505032604 12 216 1.6 4.8 0.00 0.05 0.05 63 999.7
20260505031604 13 215 3.2 11.3 0.00 0.05 0.05 63 999.8
20260505030604 13 216 6.4 9.7 0.00 0.05 0.05 62 999.9
20260505025605 13 230 4.8 9.7 0.00 0.05 0.05 61 999.9
20260505023604 13 219 4.8 9.7 0.00 0.05 0.05 61 1000.0
20260505022605 13 229 4.8 14.5 0.00 0.05 0.05 62 1000.0
20260505020604 12 215 4.8 11.3 0.00 0.05 0.05 64 1000.0
20260505015605 13 209 3.2 8.0 0.00 0.05 0.05 63 1000.2
20260505014604 13 214 3.2 8.0 0.00 0.05 0.05 63 1000.1
20260505013604 13 200 4.8 8.0 0.00 0.05 0.05 62 1000.1
20260505012604 13 193 3.2 4.8 0.00 0.05 0.05 61 1000.1
20260505011604 15 214 3.2 8.0 0.00 0.05 0.05 59 1000.2
20260505005604 15 218 6.4 12.9 0.00 0.05 0.05 56 1000.1
20260505004605 16 212 8.0 12.9 0.00 0.05 0.05 55 1000.0
20260505003604 16 209 8.0 16.1 0.00 0.05 0.05 54 1000.1
20260505002604 17 209 9.7 19.3 0.00 0.05 0.05 53 1000.2
20260505000604 17 234 12.9 24.1 0.00 0.05 0.05 52 1000.3
20260504235604 17 218 9.7 27.4 0.00 0.05 0.05 51 1000.2
20260504234604 18 227 9.7 22.5 0.00 0.05 0.05 51 1000.0
20260504233604 18 219 11.3 20.9 0.00 0.05 0.05 52 1000.0
20260504232605 18 209 11.3 19.3 0.00 0.05 0.05 51 999.9
20260504231603 18 214 11.3 19.3 0.00 0.05 0.05 51 999.9
20260504230604 19 199 11.3 25.7 0.00 0.05 0.05 51 999.9
20260504225604 19 226 11.3 24.1 0.00 0.05 0.05 50 1000.0
20260504223607 20 211 14.5 27.4 0.00 0.05 0.05 50 1000.0
20260504222605 20 212 20.9 37.0 0.00 0.05 0.05 49 1000.1
20260504221605 20 212 17.7 32.2 0.00 0.05 0.05 49 1000.2
20260504220606 20 198 12.9 27.4 0.00 0.05 0.05 49 1000.3
20260504215605 20 220 19.3 32.2 0.00 0.05 0.05 47 1000.2
20260504214605 21 204 19.3 33.8 0.00 0.05 0.05 46 1000.3
20260504213606 21 217 14.5 33.8 0.00 0.05 0.05 48 1000.5